Details From KRAP - RAPID CITY RGNL
To KBKX - BROOKINGS RGNL
Flight Number -
Tags decoded
Created
Modified
Stats Distance 269 nm / 499 km
Max Altitude 0 ft / 0 m
Waypoints 2
Social Downloads 0
Likes 0
Share VATSIM

Download

Looking for another format? Having issues loading an existing format? Contact us
Advertisement - Login to hide

Notes

Requested: KRAP KBKX

Route

KRAP KBKX

ID Type Via Altitude Latitude Longitude Leg Dist Tot Dist Heading (true) Name
O KRAP APT - 0 ft / 0 m 44.04695˚ -103.05869˚ - 0 nm - RAPID CITY RGNL
O KBKX APT - 0 ft / 0 m 44.30474˚ -96.81762˚ 269 nm 269 nm 85° / 89° BROOKINGS RGNL

Altitude Profile

Advertisement - Login to hide

Weather


0- 5 10 15 20 25 30 35+ Temperature / ° C

Clouds and Precipitation
Forecast for 2018-05-21 18:00 UTC. Updated an hour ago

Ground ~20,000 ft ~40,000 ft Winds

KRAP

Details ICAO KRAP (RAP)
Name RAPID CITY RGNL
Region United States
Timezone America/Denver (UTC-6.0)
Stats Elevation 3,204 ft / 977 m (AMSL)
Location 44.046952° -103.058688°
Runways 2
Magnetic Variation 7.382° E

METAR

KRAP 211752Z 15016G22KT 10SM CLR 19/11 A2995 RMK AO2 SLP137 T01940111 10194 20044 56008

Decode

TAF

KRAP 211728Z 2118/2218 16014G22KT P6SM SCT250 FM220100 13006KT P6SM SCT250

Decode

Departure Runways

ID Width Length Bearing (true) Bearing (mag) Surface Threshold Offset Overrun Length
05 75 ft / 23 m 3,594 ft / 1,095 m 61.79° 54.41° Asphalt 0 ft / 0 m 0 ft / 0 m
14 151 ft / 46 m 8,701 ft / 2,652 m 151.91° 144.53° Concrete 0 ft / 0 m 200 ft / 61 m
23 75 ft / 23 m 3,594 ft / 1,095 m 241.80° 234.42° Asphalt 0 ft / 0 m 0 ft / 0 m
32 151 ft / 46 m 8,701 ft / 2,652 m 331.92° 324.54° Concrete 0 ft / 0 m 200 ft / 61 m

KBKX

Details ICAO KBKX
Name BROOKINGS RGNL
Region United States
Timezone America/Chicago (UTC-5.0)
Stats Elevation 1,648 ft / 502 m (AMSL)
Location 44.304738° -96.817623°
Runways 2
Magnetic Variation 3.045° E

METAR

KBKX 211756Z AUTO 20005KT 10SM OVC014 16/13 A3003 RMK AO2 SLP181 60006 T01560128 10156 20128 56006

Decode

TAF

Not found

Destination Runways

ID Width Length Bearing (true) Bearing (mag) Surface Threshold Offset Overrun Length
12 100 ft / 30 m 5,226 ft / 1,593 m 129.00° 125.96° Asphalt 0 ft / 0 m 0 ft / 0 m
17 60 ft / 18 m 3,602 ft / 1,098 m 176.88° 173.84° Asphalt 0 ft / 0 m 0 ft / 0 m
30 100 ft / 30 m 5,226 ft / 1,593 m 309.01° 305.97° Asphalt 0 ft / 0 m 0 ft / 0 m
35 60 ft / 18 m 3,602 ft / 1,098 m 356.88° 353.84° Asphalt 0 ft / 0 m 0 ft / 0 m

Approach Navaids

Runway Type Ident Frequency Range Bearing (true) Bearing (mag) Slope Elevation
30 Localiser IBKX 110.90 MHz 18 nm / 33 km 308.99° 305.95° - 1,604 ft / 489 m (AMSL)
30 Glidescope IBKX 110.90 MHz 10 nm / 19 km 309.01° 305.96° 3.00° 1,628 ft / 496 m (AMSL)